STARLINK-5757, 55580

Orbit data source: Space-Track

STARLINK-5757, 55580 is a payload satellite owned by SpaceX/Seattle (US) in LEO that was launched on Sun, 12 Feb 2023 UTC via an FALCON 9 launch vehicle from the Air Force Eastern Test Range (AFETR). Payload-class satellites include a variety of spacecraft equipped with specific instruments for various scientific and technological missions. These include communications satellites like Starlink; space stations such as the ISS; scientific satellites like the Hubble; Earth observation satellites from companies like Planet Labs, Umbra, and HawkEye 360; GPS; miniature CubeSats for education and research; and military/defense satellites.

Loading next visibility...
Identifier
55580, 2023-020M
Orbit
LEO
Country
Flag of USUS
Related business
Manufacturer
SpaceX/Seattle
Mission
Operational Commercial Communications
Bus & Motor
STARLINK, Unknown motor
Mass
305 kg wet, ~290 kg dry
Launch date (UTC)
2023-02-12 (3 years ago)
Launch vehicle
FALCON 9
Launch site
Air Force Eastern Test Range (AFETR)
Object type
Payload
Rocket body
Debris
Shape & HBR
Box + 1 Pan, 10.1 m
Radar Cross Section
13.562 m², Large (>1 m²)

Expand to show TLE details & history
Last TLE update: 2 days ago

TLE from 2 days ago
0 STARLINK-5757
1 55580U 23020M   26171.18159526 -.00000057  00000-0  74727-5 0  9999
2 55580  43.0051 120.7288 0001640 270.7094  89.3570 15.27575903184881
Epoch: 2026-06-20T04:21Z
TLE epoch observation values (Epoch: 2026-06-20T04:21:29.830Z)
Latitude
-0°
Longitude
146.9546°
Altitude
482.825 km
Speed
7.626 km/s
True Right ascension
08h 02m 54s
True Declination
0° 00' 00"
Sunlit
Object was in daylight at epoch
Visualization orbit readout
Latitude
Unknown
Longitude
Unknown
Altitude
Unknown
Speed
Unknown
Apparent Right ascension
Unknown
Apparent Declination
Unknown
Sunlit
N/A
Visualization observer readout
Local Sidereal Time
21:40:15
Azimuth
Unknown
Elevation
Unknown
Doppler factor
Unknown
Orbital elements
Apogee altitude
486.131 km
Perigee altitude
483.88 km
Semi-major axis
6,863.143 km
Eccentricity
0.00016
Inclination
43.0051°
RAAN
120.7288°
Arg. of periapsis
270.7094°
True anomaly
89.37579°
Mean anomaly
89.357°
Eccentric anomaly
89.3664°
Mean motion
3.81732 °/min
Orbital period
94.31 mins
BSTAR
0.0000074727
Loading maneuver chart data...
Computing Atmospheric mass density...
Loading historical data...
Loading historical data...
Loading historical data...
Loading historical data...
Loading historical data...
Loading historical data...
Loading historical data...

Documentation

Showing up to 5 results
|